This demonstration page uses our WeatherBlox Daily Observations layout. Learn more.

Left ArrowRight Arrow

Hourly Observations for May 4, 2015

Temp ( °F °C ) Dew Point ( °F °C ) Humidity (%) Winds ( mph kmh ) Pressure ( in mb ) Visibility ( mi km ) Precip ( " mm )
12:51 am 00:51 Clear 73 22.8 39 3.9 29 29 NW 15 24 29.68 1005 10 16 0.00 0.00
1:51 am 01:51 Mostly Clear 71 21.7 42 5.6 35 35 NW 18 30 29.69 1006 10 16 0.00 0.00
2:51 am 02:51 Mostly Cloudy 67 19.4 47 8.3 49 49 NNW 20 31 29.70 1006 10 16 0.00 0.03
3:51 am 03:51 Clear 63 17.2 50 10 63 63 W 16 26 29.72 1006 10 16 0.00 0.00
4:51 am 04:51 Mostly Clear 62 16.7 50 10 65 65 W 14 22 29.74 1007 10 16 0.00 0.00
5:51 am 05:51 Partly Cloudy 62 16.7 50 10 65 65 WNW 14 22 29.77 1008 10 16 0.00 0.03
6:51 am 06:51 Cloudy with Light Rain 62 16.7 51 10.6 67 67 WNW 15 24 29.80 1009 10 16 0.00 0.03
7:51 am 07:51 Sunny 67 19.4 50 10 55 55 W 6 9 29.81 1009 10 16 0.00 0.03
8:51 am 08:51 Sunny 70 21.1 49 9.4 47 47 ESE 12 19 29.80 1009 10 16 0.00 0.00
9:51 am 09:51 Sunny 74 23.3 46 7.8 37 37 E 10 17 29.79 1009 10 16 0.00 0.00
10:51 am 10:51 Sunny 77 25 45 7.2 32 32 SE 12 19 29.76 1008 10 16 0.00 0.00
11:51 am 11:51 Sunny 79 26.1 44 6.7 29 29 SSE 9 15 29.73 1007 10 16 0.00 0.00
12:51 pm 12:51 Partly Cloudy 80 26.7 42 5.6 26 26 SE 14 22 29.68 1005 10 16 0.00 0.00
1:25 pm 13:25 Partly Cloudy with Nearby Thunderstorms 75 23.9 49 9.4 40 40 WNW 30 48 29.65 1004 10 16 0.00 0.00
1:34 pm 13:34 Mostly Sunny 74 23.3 50 10 43 43 WNW 21 33 29.65 1004 10 16 0.00 0.00
1:51 pm 13:51 Mostly Cloudy 71 21.7 48 8.9 44 44 NW 23 37 29.70 1006 10 16 0.00 0.00
2:03 pm 14:03 Cloudy with Thunderstorms 67 19.4 51 10.6 57 57 NW 18 30 29.71 1006 10 16 0.00 0.03
2:31 pm 14:31 Mostly Cloudy with Nearby Thunderstorms 71 21.7 47 8.3 42 42 NNE 22 35 29.65 1004 10 16 0.00 0.03
2:38 pm 14:38 Mostly Cloudy with Light Rain 72 22.2 48 8.9 43 43 NE 17 28 29.65 1004 10 16 0.00 0.03
2:51 pm 14:51 Mostly Sunny 75 23.9 47 8.3 37 37 N 10 17 29.68 1005 10 16 0.00 0.03
3:51 pm 15:51 Mostly Sunny 72 22.2 50 10 46 46 WNW 16 26 29.68 1005 10 16 0.00 0.03
4:51 pm 16:51 Sunny 72 22.2 48 8.9 43 43 WNW 17 28 29.69 1005 10 16 0.00 0.00
5:51 pm 17:51 Mostly Sunny 68 20 50 10 53 53 NW 10 17 29.70 1006 10 16 0.00 0.00
6:51 pm 18:51 Mostly Cloudy 64 17.8 48 8.9 56 56 NNW 15 24 29.75 1007 10 16 0.00 0.00
7:51 pm 19:51 Partly Cloudy 63 17.2 45 7.2 52 52 WNW 18 30 29.78 1009 10 16 0.00 0.00
8:51 pm 20:51 Clear 61 16.1 46 7.8 58 58 W 17 28 29.79 1009 10 16 0.00 0.00
9:51 pm 21:51 Mostly Clear 57 13.9 51 10.6 81 81 NW 14 22 29.83 1010 10 16 0.00 0.00
10:51 pm 22:51 Partly Cloudy 60 15.6 47 8.3 62 62 NNW 20 31 29.83 1010 10 16 0.00 0.00
11:51 pm 23:51 Cloudy with Light Rain 56 13.3 50 10 81 81 N 13 20 29.83 1010 10 16 0.02 0.51

Powered by AerisWeather